Terminal Aerodrome Forecast
Issued by NWS Portland, OR

Home | Current Version | Previous Version | Text Only | Print | Product List | Glossary On
Versions: 1 2 3 4 5 6 7 8 9 10 11 12 13 14 15 16 17 18 19 20 21 22 23 24 25 26
000
FTUS46 KPQR 221729
TAFHIO
TAF
KHIO 221729Z 2218/2318 16004KT P6SM OVC025
     FM222000 VRB04KT P6SM FEW025 SCT035
     FM222200 24006KT P6SM SCT050 SCT100
     FM231000 VRB03KT P6SM -RA SCT035 OVC050=

USA.gov is the U.S. government's official web portal to all federal, state and local government web resources and services.